Location: Moscow
(55.7500°N, 37.5830°E)
Time: 13:45:05
(UTC+03:00)

Vanguard 1 - Pass Details

Date: 04 December 2021
Orbit: 652 x 3830 km, 34.2° (Epoch: 25 January)

Event Time Altitude Azimuth Distance (km) Brightness Sun altitude
Exits shadow 04:03:38 35° 205° (SSW) 4,647 13.1 -37.2°
Maximum altitude 04:05:34 35° 196° (SSW) 4,514 13.0 -36.9°
Drops below altitude 10° 04:19:30 10° 138° (SE) 5,138 14.0 -35.0°
Sets 04:23:13 0° 129° (SE) 5,747 14.5 -34.5°
